CW9386 Weather Reports


Display with metric or nautical units.
time (UTC)temp
F
wind
direction
speed
MPH
gust
MPH
rain 1hr
in
rain 24hr
in
rain mn
in
humidity
%
barometer
mb
20260901105643 73 62 1.0 3.0 0.00 0.00 0.00 53 1019.2
20260901104642 74 51 2.0 4.0 0.00 0.00 0.00 52 1019.2
20260901103636 74 74 1.0 2.0 0.00 0.00 0.00 52 1019.4
20260901101639 74 80 2.0 3.0 0.00 0.00 0.00 51 1019.6
20260901100652 74 59 0.0 3.0 0.00 0.00 0.00 51 1019.5
20260901095652 74 59 1.0 4.0 0.00 0.00 0.00 51 1019.5
20260901094647 74 63 1.0 4.0 0.00 0.00 0.00 51 1019.6
20260901093641 74 39 2.0 4.0 0.00 0.00 0.00 51 1019.5
20260901092638 74 54 2.0 3.0 0.00 0.00 0.00 51 1019.5
20260901091639 74 69 2.0 5.0 0.00 0.00 0.00 52 1019.6
20260901090701 74 62 3.0 5.0 0.00 0.00 0.00 52 1019.8
20260901085700 74 65 3.0 8.0 0.00 0.00 0.00 52 1019.4
20260901084642 74 38 5.0 7.0 0.00 0.00 0.00 52 1019.4
20260901083650 74 36 3.0 8.0 0.00 0.00 0.00 53 1019.7
20260901082654 75 27 5.0 9.0 0.00 0.00 0.00 53 1019.6
20260901081648 75 22 5.0 11.0 0.00 0.00 0.00 54 1019.4
20260901080639 74 57 7.0 12.0 0.00 0.00 0.00 55 1019.4
20260901075637 74 44 5.0 10.0 0.00 0.00 0.00 56 1019.4
20260901074653 74 65 4.0 8.0 0.00 0.00 0.00 57 1019.5
20260901072635 75 38 6.0 9.0 0.00 0.00 0.00 59 1019.3
20260901071646 75 87 3.0 7.0 0.00 0.00 0.00 62 1019.8
20260901070637 77 55 5.0 8.0 0.00 0.00 0.00 56 1019.8
20260901065649 77 80 2.0 10.0 0.00 0.00 0.00 51 1020.2
20260901064636 77 349 3.0 9.0 0.00 0.00 0.00 45 1020.2
20260901063634 77 307 6.0 9.0 0.00 0.00 0.00 45 1020.2
20260901055646 77 339 6.0 12.0 0.00 0.00 0.00 47 1020.5
20260901054642 77 315 9.0 12.0 0.00 0.00 0.00 48 1020.2
20260901053637 77 337 3.0 10.0 0.00 0.00 0.00 50 1020.5
20260901052653 77 277 6.0 14.0 0.00 0.00 0.00 51 1020.9
20260901051643 77 296 6.0 16.0 0.00 0.00 0.00 51 1020.7
20260901045639 77 284 6.0 15.0 0.00 0.00 0.00 51 1021.3
20260901044646 78 225 8.0 12.0 0.00 0.00 0.00 50 1021.4
20260901043640 78 209 5.0 15.0 0.00 0.00 0.00 48 1021.1
20260901041641 78 233 8.0 16.0 0.00 0.00 0.00 47 1020.4
20260901040639 79 263 10.0 17.0 0.00 0.00 0.00 47 1020.3
20260901035634 79 183 6.0 12.0 0.00 0.00 0.00 47 1020.2
20260901034649 79 193 8.0 19.0 0.00 0.00 0.00 46 1020.0
20260901033645 80 225 11.0 20.0 0.00 0.00 0.00 45 1019.8
20260901032632 81 246 9.0 18.0 0.00 0.00 0.00 43 1019.2
20260901025638 83 192 9.0 19.0 0.00 0.00 0.00 36 1018.2
20260901024634 84 186 9.0 13.0 0.00 0.00 0.00 33 1017.6
20260901023639 85 228 3.0 16.0 0.00 0.00 0.00 33 1017.3
20260901022638 85 217 6.0 13.0 0.00 0.00 0.00 32 1016.8
20260901021749 86 178 14.0 22.0 0.00 0.00 0.00 31 1016.5
20260901020739 87 286 9.0 14.0 0.00 0.00 0.00 28 1015.6
20260901015746 88 360 9.0 15.0 0.00 0.00 0.00 27 1015.4
20260901014746 90 252 11.0 17.0 0.00 0.00 0.00 25 1015.2
20260901012741 91 246 1.0 6.0 0.00 0.00 0.00 23 1014.7
20260901010729 92 228 2.0 5.0 0.00 0.00 0.00 22 1014.5
20260901004736 93 213 3.0 4.0 0.00 0.00 0.00 21 1014.5
20260901003732 93 60 2.0 3.0 0.00 0.00 0.00 21 1014.5
20260901002741 92 36 3.0 4.0 0.00 0.00 0.00 21 1014.6
20260901001737 92 19 3.0 10.0 0.00 0.00 0.00 21 1014.8
20260901000735 93 15 6.0 11.0 0.00 0.00 0.00 22 1014.8
20260831235725 94 97 7.0 17.0 0.00 0.00 0.00 21 1014.9
20260831233737 97 96 8.0 13.0 0.00 0.00 0.00 18 1014.4
20260831232730 99 216 4.0 11.0 0.00 0.00 0.00 16 1014.3
20260831231737 101 214 6.0 10.0 0.00 0.00 0.00 15 1014.0
20260831225728 101 277 7.0 12.0 0.00 0.00 0.00 15 1014.1
20260831224738 101 182 3.0 12.0 0.00 0.00 0.00 16 1014.2
20260831223729 101 284 2.0 10.0 0.00 0.00 0.00 16 1014.3
20260831222728 101 225 3.0 8.0 0.00 0.00 0.00 16 1014.6
20260831221736 101 207 3.0 13.0 0.00 0.00 0.00 16 1014.6
20260831220742 101 300 7.0 11.0 0.00 0.00 0.00 16 1014.6
20260831215738 100 300 2.0 9.0 0.00 0.00 0.00 17 1014.8
20260831214728 100 42 4.0 11.0 0.00 0.00 0.00 17 1015.0
20260831213738 100 119 4.0 12.0 0.00 0.00 0.00 17 1015.4
20260831212739 101 184 5.0 12.0 0.00 0.00 0.00 17 1015.5
20260831211734 101 147 9.0 14.0 0.00 0.00 0.00 17 1015.7
20260831210723 100 208 6.0 11.0 0.00 0.00 0.00 17 1015.8
20260831205729 100 96 6.0 12.0 0.00 0.00 0.00 17 1016.1
20260831204739 101 169 8.0 14.0 0.00 0.00 0.00 17 1016.2
20260831203729 101 130 4.0 9.0 0.00 0.00 0.00 17 1016.5
20260831202737 101 142 4.0 11.0 0.00 0.00 0.00 17 1016.7
20260831201730 100 301 7.0 12.0 0.00 0.00 0.00 17 1016.9
20260831195739 101 201 6.0 9.0 0.00 0.00 0.00 18 1017.2
20260831193735 99 200 4.0 10.0 0.00 0.00 0.00 19 1017.4
20260831191722 98 329 3.0 5.0 0.00 0.00 0.00 20 1017.7
20260831190734 97 16 3.0 9.0 0.00 0.00 0.00 20 1017.7
20260831185727 97 207 6.0 9.0 0.00 0.00 0.00 20 1017.9
20260831184720 97 238 4.0 9.0 0.00 0.00 0.00 20 1018.0
20260831183725 98 276 3.0 5.0 0.00 0.00 0.00 20 1018.0
20260831181718 95 142 0.0 5.0 0.00 0.00 0.00 22 1018.2
20260831180729 95 30 2.0 5.0 0.00 0.00 0.00 22 1018.4
20260831175731 94 294 2.0 8.0 0.00 0.00 0.00 23 1018.5
20260831174728 94 313 3.0 6.0 0.00 0.00 0.00 23 1018.5
20260831173722 94 283 2.0 4.0 0.00 0.00 0.00 23 1018.6
20260831172731 93 134 0.0 8.0 0.00 0.00 0.00 23 1018.7
20260831171725 93 111 3.0 7.0 0.00 0.00 0.00 24 1018.8
20260831170726 92 192 1.0 6.0 0.00 0.00 0.00 25 1018.7
20260831163735 90 200 2.0 6.0 0.00 0.00 0.00 27 1018.9
20260831162715 89 249 2.0 4.0 0.00 0.00 0.00 28 1019.0
20260831161729 88 300 2.0 6.0 0.00 0.00 0.00 29 1018.9
20260831160721 87 277 2.0 6.0 0.00 0.00 0.00 30 1018.7
20260831155721 86 264 2.0 6.0 0.00 0.00 0.00 30 1018.8
20260831154728 85 246 2.0 7.0 0.00 0.00 0.00 31 1018.6
20260831153726 85 232 3.0 7.0 0.00 0.00 0.00 31 1018.7
20260831152718 85 281 4.0 6.0 0.00 0.00 0.00 31 1018.6
20260831151730 84 286 4.0 6.0 0.00 0.00 0.00 31 1018.5
20260831150725 84 320 3.0 4.0 0.00 0.00 0.00 33 1017.9
20260831145733 83 336 3.0 5.0 0.00 0.00 0.00 33 1017.9
20260831143715 82 16 2.0 4.0 0.00 0.00 0.00 34 1018.0
20260831142731 81 26 3.0 5.0 0.00 0.00 0.00 35 1017.8
20260831141724 80 63 3.0 7.0 0.00 0.00 0.00 36 1017.7
20260831140718 80 22 4.0 8.0 0.00 0.00 0.00 37 1017.7
20260831135732 79 337 5.0 9.0 0.00 0.00 0.00 38 1017.6
20260831134726 78 23 5.0 8.0 0.00 0.00 0.00 39 1017.5
20260831132722 77 69 4.0 7.0 0.00 0.00 0.00 40 1017.1
20260831131721 76 46 2.0 7.0 0.00 0.00 0.00 40 1017.1
20260831130716 75 80 4.0 5.0 0.00 0.00 0.00 40 1016.9
20260831125725 75 71 3.0 4.0 0.00 0.00 0.00 40 1016.8
20260831124721 75 67 2.0 6.0 0.00 0.00 0.00 39 1016.6
20260831123712 75 28 3.0 8.0 0.00 0.00 0.00 39 1016.3
20260831122709 75 44 5.0 8.0 0.00 0.00 0.00 39 1016.2
20260831121723 75 55 4.0 8.0 0.00 0.00 0.00 40 1016.3
20260831120716 73 57 4.0 8.0 0.00 0.00 0.00 42 1016.2
20260831115728 73 90 2.0 4.0 0.00 0.00 0.00 42 1016.2
20260831114723 73 109 1.0 4.0 0.00 0.00 0.00 42 1016.4
20260831113719 73 96 3.0 4.0 0.00 0.00 0.00 42 1016.4
20260831112714 74 92 5.0 7.0 0.00 0.00 0.00 42 1016.4
20260831110727 76 140 2.0 5.0 0.00 0.00 0.00 38 1016.5